Home > Weather > Samford > Past weeks

Flag for Australia Weather for the Past 2 Weeks in Samford, Queensland, Australia

Now
77 °F

Passing clouds.


Feels Like: 79 °F
Forecast: 68 / 82 °F
Wind: 9 mph from Southeast

Location: Brisbane Airport M. O

Current Time: Feb 11, 2016 at 9:31:14 PM

Latest Report: Feb 11, 2016 at 9:00 PM


Visibility: N/A

Pressure: 29.92 "Hg

Humidity: 65%

Dew point: 64 °F

Location of SamfordLocation

Historic Weather in Samford — Graph

°F

Samford Temperature Yesterday

Maximum temperature yesterday: 84 °F (at 11:00 AM)
Minimum temperature yesterday: 72 °F (at 12:00 AM)
Average temperature yesterday: 77 °F

High & Low Weather Summary for the Past Weeks

 TemperatureHumidityPressure
High97 °F (Feb 2, 2:00 PM)100% (Jan 29, 3:00 AM)29.98 "Hg (Jan 29, 3:00 AM)
Low66 °F (Feb 8, 4:00 AM)32% (Feb 2, 3:00 PM)29.53 "Hg (Feb 2, 4:30 PM)
Average78 °F76%29.78 "Hg
* Reported Jan 27 8:00 PM — Feb 11 8:00 PM, Samford, Weather by CustomWeather, © 2016

Note: Actual official high and low records may vary slightly from our data, if they occured in-between our weather recording intervals... More about our weather records

Advertising

Samford Weather History for the Previous 24 Hours

 ConditionsComfort  
Time TempWeatherWind HumidityBarometerVisibility
8:00 PM
Thu, Feb 11
77 °FPassing clouds.10 mph69%29.92 "HgN/A
7:30 PM77 °FPassing clouds.12 mph69%29.89 "HgN/A
7:00 PM77 °FPassing clouds.9 mph69%29.89 "HgN/A
6:30 PM77 °FPassing clouds.12 mph65%29.89 "HgN/A
6:00 PM79 °FPassing clouds.13 mph65%29.89 "HgN/A
5:30 PM79 °FPassing clouds.13 mph61%29.86 "HgN/A
5:00 PM81 °FPassing clouds.15 mph62%29.86 "HgN/A
4:30 PM81 °FScattered clouds.14 mph58%29.86 "HgN/A
4:00 PM81 °FPartly sunny.15 mph62%29.86 "HgN/A
3:30 PM82 °FScattered clouds.15 mph58%29.86 "HgN/A
3:00 PM82 °FScattered clouds.16 mph55%29.86 "HgN/A
2:30 PM82 °FScattered clouds.13 mph55%29.86 "HgN/A
2:00 PM82 °FPassing clouds.16 mph58%29.86 "HgN/A
1:00 PM82 °FScattered showers. Scattered clouds.14 mph55%29.86 "HgN/A
12:00 PM82 °FPassing clouds.13 mph58%29.89 "HgN/A
11:30 AM82 °FPassing clouds.14 mph58%29.89 "HgN/A
11:00 AM82 °FPassing clouds.14 mph58%29.89 "HgN/A
10:30 AM82 °FPassing clouds.15 mph58%29.89 "HgN/A
10:00 AM82 °FScattered clouds.12 mph58%29.92 "HgN/A
9:30 AM82 °FScattered clouds.12 mph58%29.89 "HgN/A
9:00 AM82 °FScattered clouds.10 mph58%29.92 "HgN/A
8:30 AM81 °FPassing clouds.10 mph58%29.89 "HgN/A
8:00 AM77 °FPassing clouds.9 mph69%29.89 "HgN/A
7:30 AM77 °FPassing clouds.9 mph69%29.89 "HgN/A
7:00 AM73 °FPassing clouds.8 mph74%29.89 "HgN/A
6:30 AM70 °FPassing clouds.8 mph83%29.89 "HgN/A
6:00 AM68 °FPassing clouds.8 mph88%29.89 "HgN/A
5:30 AM68 °FPassing clouds.8 mph88%29.89 "HgN/A
5:00 AM68 °FPassing clouds.7 mph88%29.86 "HgN/A
4:30 AM68 °FSunny.7 mph88%29.86 "Hg10 mi
4:00 AM68 °FClear.7 mph88%29.86 "Hg10 mi
3:30 AM72 °FClear.7 mph83%29.86 "Hg10 mi
3:00 AM72 °FClear.7 mph78%29.86 "Hg10 mi
2:30 AM72 °FClear.7 mph78%29.86 "Hg10 mi
2:00 AM72 °FClear.6 mph78%29.86 "Hg10 mi
1:30 AM72 °FClear.7 mph83%29.89 "Hg10 mi
1:00 AM72 °FClear.8 mph83%29.89 "Hg10 mi
12:30 AM72 °FClear.8 mph83%29.89 "Hg10 mi
12:00 AM73 °FPassing clouds.7 mph83%29.92 "HgN/A
11:30 PM
Wed, Feb 10
73 °FScattered showers. Passing clouds.7 mph78%29.92 "HgN/A
11:00 PM73 °FScattered showers. Passing clouds.8 mph83%29.92 "HgN/A
10:30 PM73 °FPassing clouds.7 mph78%29.92 "HgN/A
10:00 PM75 °FPassing clouds.8 mph74%29.92 "HgN/A
9:00 PM75 °FPassing clouds.10 mph74%29.92 "HgN/A
Weather by CustomWeather, © 2016

See weather overviewHow to use our weather pages